Regional Weather Roundup
Issued by NWS

Home | Current Version | Previous Version | Text Only | Print | Product List | Glossary On
Versions: 1 2 3 4 5 6 7 8 9 10 11 12 13 14 15 16 17 18 19 20 21 22 23 24 25 26 27 28 29 30 31 32 33 34 35 36 37 38 39 40 41 42 43 44 45 46 47 48 49 50
714
ASUS42 KTBW 241218
RWRFL
FLORIDA REGIONAL WEATHER ROUNDUP
NATIONAL WEATHER SERVICE TAMPA BAY RUSKIN FL
800 AM EDT SUN SEP 24 2017

NOTE: "FAIR" INDICATES FEW OR NO CLOUDS BELOW 12,000 FEET WITH NO
SIGNIFICANT WEATHER AND/OR OBSTRUCTIONS TO VISIBILITY.

FLZ001>010-012>015-112-114-115-241300-
PANHANDLE FLORIDA

CITY           SKY/WX    TMP DP  RH WIND       PRES   REMARKS
PENSACOLA      CLEAR     75  69  81 NE7       29.94R
PENSACOLA NAS  CLEAR     74  69  85 NE9       29.93R THUNDER
MILTON NAS     CLEAR     70  68  93 NE6       29.97
CRESTVIEW      CLOUDY    70  67  90 NE3       29.98R
DUKE FIELD     FAIR      68  67  95 NE3       29.96R
VALPARAISO     PTCLDY    73  68  83 NE3       29.95R
MARY ESTHER    MOCLDY    73  68  84 NE7       29.93S
PANAMA CITY    FAIR      72  70  93 NE7       29.94S
TYNDALL AFB    CLOUDY    73  71  92 NE8       29.94S
APALACHICOLA   MOCLDY    74  74 100 NE8       29.93R

STATION/POSITION SKY/WX   TEMP    WIND        PRES    WAVE   SWELL
                          AIR SEA DIR/SP/G            HT/PER HT/PER
                          (F)     (DEG/KT/KT) (MB)    (FT/S) (FT/S)
30.1N   87.6W              81 83   80/ 12/ 14 1012.8R   2/ 4
29.2N   88.2W              78 83  160/  8/ 12 1013.0
28.8N   86.0W              82 83   90/ 14/ 17 1012.1R   4/ 6
PANAMA CITY BEAC           75      60/  7/ 10 1014.3S
TOWER C                    79      90/ 17/ 18 1014.0R
28.5N   84.5W              81 81   90/ 14/ 17 1012.2R   3/ 6

$$
FLZ011-016>038-118-127-128-134-139-239-241300-
NORTH FLORIDA

CITY           SKY/WX    TMP DP  RH WIND       PRES   REMARKS
MARIANNA       MOCLDY    71  70  96 NE6       29.97R
TALLAHASSEE    PTCLDY    73  72  96 NE5       29.96R
PERRY          CLEAR     73  71  94 NE3       29.96R
LIVE OAK       CLEAR     73  73 100 CALM      29.97R
CROSS CITY     PTCLDY    73  72  97 NE6       29.99R
LAKE CITY      FAIR      66  66 100 NE5       29.95S
GAINESVILLE    PTCLDY    72  71  97 N5        29.96R
WILLISTON      CLEAR     75  75 100 CALM      29.93S FOG
PALATKA        FAIR      73  73 100 NW3       29.93S
MAYPORT NAS    PTCLDY    81  72  74 NE14      29.94R
JACKSONVILLE   PTCLDY    73  72  96 N5        29.95R
JAX NAS        PTCLDY    80  71  74 NE7       29.95R
JAX CECIL      PTCLDY    72  72 100 NE7       29.95R
FERNANDINA BEA FAIR      79  70  73 MISG      29.94R
ST AUGUSTINE   PTCLDY    80  71  74 NE14      29.94R
PALM COAST     PTCLDY    79 N/A N/A NE6       29.92R

STATION/POSITION SKY/WX   TEMP    WIND        PRES    WAVE   SWELL
                          AIR SEA DIR/SP/G            HT/PER HT/PER
                          (F)     (DEG/KT/KT) (MB)    (FT/S) (FT/S)
SHELL POINT      NOT AVBL
KEATON BEACH               73      50/  5/  8 1013.8R
CEDAR KEY                  75      40/  8/ 12 1013.5R
FERNANDINA                 80 81   40/  3/  7 1014.9R
30.7N   81.3W                 81                N/A     6/14   3/14
MAYPORT                    81 82   60/ 14/ 16 1014.4R
31.4N   80.9W              80 80   50/ 16/ 19 1013.9R   6/ 6   3/12
ST AUGUSTINE               81 81   50/ 16/ 17 1013.5R

$$
FLZ040-043>046-052-053-057-058-063-144-241300-
INTERIOR CENTRAL FLORIDA

CITY           SKY/WX    TMP DP  RH WIND       PRES   REMARKS
OCALA          CLOUDY    74  72  93 CALM      29.94R
THE VILLAGES     N/A     75  75 100 CALM      29.82S
LEESBURG       CLEAR     77  74  90 NE5       29.91S
SANFORD        PTCLDY    77  74  90 N6        29.90R
ORLANDO EXEC   CLOUDY    77  74  90 N6        29.90S
ORLANDO INTL   CLOUDY    75  75 100 N7        29.90R
KISSIMMEE      PTCLDY    76  74  93 N3        29.90S
WINTER HAVEN   PTCLDY    75  72  90 NE6       29.91R
LAKELAND       CLEAR     73  73 100 CALM      29.90R
BARTOW         PTCLDY   N/A N/A N/A MISG        N/A
SEBRING        FAIR      78  74  88 NE8       29.89R
OKEECHOBEE     MOCLDY    73  73 100 CALM      29.88R

$$
FLZ041-047-054-059-064-141-147-241300-
EAST CENTRAL FLORIDA

CITY           SKY/WX    TMP DP  RH WIND       PRES   REMARKS
ORMOND BEACH   PTCLDY    79  72  78 NE6       29.91R
DAYTONA BEACH  MOCLDY    80  72  76 NE8       29.91R
DELAND         MOCLDY    75  73  94 N3        29.90S
NEW SMYRNA BEA CLEAR     81  72  74 E9        29.91S
JFK SPACE CTR  PTCLDY    80  75  86 NE7       29.88R
TITUSVILLE     MOCLDY    82  75  78 NE7       29.89R
CAPE CANAVERAL CLEAR     81  73  77 NE9       29.87R
PATRICK AFB    PTCLDY    81  75  81 NE12      29.87R
MELBOURNE      PTCLDY    82  75  79 NE10      29.88R
VERO BEACH     MOCLDY    79  75  87 NE6       29.88R
FT PIERCE      SUNNY     81  76  84 VRB5      29.87R
STUART         MOSUNNY   84  77  79 NE9       29.88R

STATION/POSITION SKY/WX   TEMP    WIND        PRES    WAVE   SWELL
                          AIR SEA DIR/SP/G            HT/PER HT/PER
                          (F)     (DEG/KT/KT) (MB)    (FT/S) (FT/S)
28.5N   80.2W              83 84   50/ 14/ 17 1012.7R  11/14  10/14
28.9N   78.5W                      40/ 16/ 19 1011.9R  10/12   8/12
TRIDENT PIER               79 83   20/  6/  8 1013.4R
28.4N   80.5W                 82                N/A     5/14   3/14
27.5N   80.2W                 82                N/A     5/ 8   2/12

$$
FLZ050-056-061-142-242-148-248-149-249-151-251-155-255-
160-260-241300-
WEST CENTRAL FLORIDA

CITY           SKY/WX    TMP DP  RH WIND       PRES   REMARKS
CRYSTAL RIVER  FAIR      72  72 100 CALM      29.92S
INVERNESS      FAIR      73  73 100 CALM      29.93R
BROOKSVILLE    PTCLDY    75  73  93 NE7       29.92R
CLEARWATER AIR FAIR      73  73 100 NE3       29.90R
ST PETE CLEARW CLEAR     79  74  84 NE9       29.90R
TAMPA INTL     PTCLDY    77  73  87 N5        29.91R
TAMPA EXEC     CLEAR     73  73 100 CALM      29.91R
PLANT CITY     CLEAR     73  73 100 NE3       29.92R
MACDILL AFB    MOCLDY    75  75 100 E8        29.90R
PETER O KNIGHT CLOUDY   N/A N/A N/A NE8       29.90R
ST PETERSBURG  MOCLDY    80  75  84 NE14      29.88R
SARASOTA       PTCLDY    70  50  49 NE7       29.88R
VENICE         FAIR      75  75 100 NE7       29.88R

STATION/POSITION SKY/WX   TEMP    WIND        PRES    WAVE   SWELL
                          AIR SEA DIR/SP/G            HT/PER HT/PER
                          (F)     (DEG/KT/KT) (MB)    (FT/S) (FT/S)
27.3N   84.2W                 83                N/A     4/ 5
CLEARWATER BEACH           77 83   40/  8/ 10 1012.6R
MIDDLE TAMPA BAY           78      70/ 12/ 14 1012.3R
VENICE                     75 84   50/  6/  8 1011.4R

$$
FLZ066-069-070-075>078-162-262-165-265-241300-
SOUTHWEST FLORIDA AND KEYS

CITY           SKY/WX    TMP DP  RH WIND       PRES   REMARKS
PUNTA GORDA    CLOUDY    76  74  93 NE5       29.90R
FT MYERS       LGT RAIN  76  76 100 NE5       29.86S
SOUTHWEST INTL CLEAR     76  74  93 NE5       29.87R
NAPLES         CLEAR     77  76  96 NE3       29.86R
IMMOKALEE      FAIR      75  75 100 CALM      29.88R
MARATHON       CLEAR     81  76  84 E5        29.84R
KEY WEST NAS   PTCLDY    85  79  82 CALM      29.84R HX  98
KEY WEST INTL  PTCLDY    83  78  85 CALM      29.84S

STATION/POSITION SKY/WX   TEMP    WIND        PRES    WAVE   SWELL
                          AIR SEA DIR/SP/G            HT/PER HT/PER
                          (F)     (DEG/KT/KT) (MB)    (FT/S) (FT/S)
NAPLES                        85   50/  3/  5 1011.0R
DRY TORTUGAS               85        CALM     1010.5R
SAND KEY                   83                 1011.1R

$$
FLZ067-068-071>074-168-172>174-241300-
SOUTHEAST FLORIDA

CITY           SKY/WX    TMP DP  RH WIND       PRES   REMARKS
W PALM BEACH   CLOUDY    81  78  91 CALM      29.86R
BOCA RATON     MOSUNNY  N/A N/A N/A CALM      29.85R
FT LAUDER-EXEC LGT RAIN  76  75  97 N6        29.85S
FT LAUDERDALE  CLOUDY    80  77  90 NW7       29.84S
POMPANO BEACH  RAIN      78  77  96 W8        29.85R FOG
PEMBROKE PINES CLOUDY    78  75  90 N5        29.87R
OPA LOCKA      PTSUNNY   79  75  87 N7        29.86R
MIAMI          PTSUNNY   80  78  94 CALM      29.85R
WEST KENDALL   MOSUNNY  N/A N/A N/A NE3       29.85R
HOMESTEAD      PTSUNNY   79  79 100 N5        29.85R

STATION/POSITION SKY/WX   TEMP    WIND        PRES    WAVE   SWELL
                          AIR SEA DIR/SP/G            HT/PER HT/PER
                          (F)     (DEG/KT/KT) (MB)    (FT/S) (FT/S)
PORT EVERGLADES            76     320/  6/  9 1010.5R
VIRGINIA KEY               81 85  330/  3/  7 1010.2R
LAKE WORTH                 83 84   40/ 12/ 12 1011.9R
FOWEY ROCKS                83 85  350/  2/  3 1011.2R
SETTLEMENT POINT           83      20/ 12/ 13 1010.5R

$$





USA.gov is the U.S. government's official web portal to all federal, state and local government web resources and services.